Regional Weather Roundup
Issued by NWS

Home | Current Version | Previous Version | Graphics & Text | Print | Product List | Glossary On
Versions: 1 2 3 4 5 6 7 8 9 10 11 12 13 14 15 16 17 18 19 20 21 22 23 24 25 26 27 28 29 30 31 32 33 34 35 36 37 38 39 40 41 42 43 44 45 46 47 48 49 50
000
ASUS43 KBIS 181802
RWRND

NORTH DAKOTA REGIONAL WEATHER ROUNDUP
NATIONAL WEATHER SERVICE BISMARCK ND
100 PM CDT WED OCT 18 2017

NOTE: "FAIR" INDICATES FEW OR NO CLOUDS BELOW 12,000 FEET WITH NO
SIGNIFICANT WEATHER AND/OR OBSTRUCTIONS TO VISIBILITY.


NDZ001>003-009>011-017-181900-
NORTHWEST NORTH DAKOTA

CITY           SKY/WX    TMP DP  RH WIND       PRES   REMARKS
WILLISTON      SUNNY     53  22  29 W20       29.97S
6HR MIN TEMP:  40; 6HR MAX TEMP:  53;

MINOT          SUNNY     55  19  24 W28G41    29.88R
MINOT AFB      SUNNY     55  17  23 NW33G44   29.85S
$$

NDZ018>021-031>035-040>046-181900-
SOUTHWEST NORTH DAKOTA

CITY           SKY/WX    TMP DP  RH WIND       PRES   REMARKS
BISMARCK       PTSUNNY   57  21  24 NW20G28   29.99S
6HR MIN TEMP:  49; 6HR MAX TEMP:  57;

DICKINSON      SUNNY     54  23  30 W20       30.00S
GARRISON         N/A     53  18  25 W21G35    29.94R
6HR MIN TEMP:  44; 6HR MAX TEMP:  54;

HETTINGER ARPT SUNNY     54  20  26 W13       30.06S
$$

NDZ004>008-012>016-024-026-027-054-181900-
NORTHEAST NORTH DAKOTA

CITY           SKY/WX    TMP DP  RH WIND       PRES   REMARKS
GRAND FORKS    MOSUNNY   61  19  19 W22G37    29.80R
GRND FRKS AFB  SUNNY     59  18  20 W24G36    29.80R
DEVILS LAKE    SUNNY     55  17  22 W32G44    29.81R
$$

NDZ022-023-025-028>030-036>039-047>053-181900-
SOUTHEAST NORTH DAKOTA

CITY           SKY/WX    TMP DP  RH WIND       PRES   REMARKS
FARGO          PTSUNNY   60  25  26 W21G32    29.87S
6HR MIN TEMP:  48; 6HR MAX TEMP:  61;

JAMESTOWN      CLOUDY    57  15  19 NW22G39   29.90R
$$





USA.gov is the U.S. government's official web portal to all federal, state and local government web resources and services.